User: anonymous   Login
Location: Moena
(46.3667°N, 11.6500°E)
Time: 19:58:56
(UTC+00:00)
Language:

GP-B - Orbit

View from above orbital plane
View from above orbital plane
View from above satellite
View from above satellite

Ground track
Ground track

The orbit data is extracted from the following two-line orbital elements,

1 28230U 04014A   21205.24266607  .00000155  00000-0  18795-4 0  9992
2 28230  89.8136  89.3559 0002324 103.4056 256.7426 14.78823168387649
Epoch (UTC): 24 July 2021 05:49:26
Eccentricity: 0.0002324
inclination: 89.8136°
perigee height: 631 km
apogee height: 634 km
right ascension of ascending node: 89.3559°
argument of perigee: 103.4056°
revolutions per day: 14.78823168
mean anomaly at epoch: 256.7426°
orbit number at epoch: 38764

The dashed part of the orbit path shows where the satellite is in the earth's shadow,  

DLR